| time (UTC) | temp F | wind direction | speed knots | gust knots | rain 1hr in | rain 24hr in | rain mn in | humidity % | barometer mb |
| 20260507091926 | 57 | 250 | 12.2 | 0.0 | 0.00 | 0.00 | 0.00 | 62 | |
| 20260507081925 | 55 | 230 | 10.4 | 0.0 | 0.00 | 0.00 | 0.00 | 71 | |
| 20260507071926 | 55 | 220 | 12.2 | 0.0 | 0.00 | 0.00 | 0.00 | 76 | |
| 20260507061925 | 54 | 220 | 10.4 | 0.0 | 0.00 | 0.00 | 0.00 | 81 | |
| 20260507051926 | 50 | 220 | 7.8 | 0.0 | 0.00 | 0.00 | 0.00 | 93 | |
| 20260507042129 | 50 | 240 | 10.4 | 0.0 | 0.00 | 0.00 | 0.00 | 93 | |
| 20260507031925 | 50 | 250 | 10.4 | 0.0 | 0.00 | 0.00 | 0.00 | 93 | |
| 20260507021923 | 52 | 240 | 10.4 | 0.0 | 0.00 | 0.00 | 0.00 | 87 | |
| 20260507012025 | 52 | 220 | 7.8 | 0.0 | 0.00 | 0.00 | 0.00 | 93 | |
| 20260507001926 | 52 | 210 | 4.3 | 0.0 | 0.00 | 0.00 | 0.00 | 87 | |
| 20260506231926 | 52 | 210 | 4.3 | 0.0 | 0.00 | 0.00 | 0.00 | 93 | |
| 20260506222126 | 52 | 20 | 6.1 | 0.0 | 0.00 | 0.00 | 0.00 | 93 | |
| 20260506211925 | 54 | 330 | 7.8 | 0.0 | 0.00 | 0.00 | 0.00 | 87 | |
| 20260506201958 | 55 | 20 | 4.3 | 0.0 | 0.00 | 0.00 | 0.00 | 76 | |
| 20260506192117 | 55 | 30 | 6.1 | 0.0 | 0.00 | 0.00 | 0.00 | 82 | |
| 20260506182026 | 57 | 20 | 10.4 | 0.0 | 0.00 | 0.00 | 0.00 | 71 | |
| 20260506171925 | 63 | 360 | 10.4 | 0.0 | 0.00 | 0.00 | 0.00 | 63 | |
| 20260506162141 | 66 | 0 | 1.7 | 0.0 | 0.00 | 0.00 | 0.00 | 55 | |
| 20260506151957 | 66 | 120 | 6.1 | 0.0 | 0.00 | 0.00 | 0.00 | 48 | |
| 20260506141942 | 68 | 130 | 6.1 | 0.0 | 0.00 | 0.00 | 0.00 | 42 | |
| 20260506131942 | 68 | 40 | 6.1 | 0.0 | 0.00 | 0.00 | 0.00 | 42 | |
| 20260506121941 | 68 | 0 | 4.3 | 0.0 | 0.00 | 0.00 | 0.00 | 45 | |
| 20260506111926 | 68 | 0 | 4.3 | 0.0 | 0.00 | 0.00 | 0.00 | 45 | |
| 20260506102128 | 64 | 0 | 1.7 | 0.0 | 0.00 | 0.00 | 0.00 | 55 |